Home > Weather > Sheboygan > Past weeks

Flag for U.S.A. Weather for the Past 2 Weeks in Sheboygan, Wisconsin, U.S.A.

Now
37 °F

Passing clouds.


Feels Like: 29 °F
Forecast: 25 / 33 °F
Wind: 12 mph from Southwest

Location: Sheboygan County Memorial Airport

Current Time: Feb 7, 2016 at 6:55:48 PM

Latest Report: Feb 7, 2016 at 5:53 PM


Visibility: 10 mi

Pressure: 29.67 "Hg

Humidity: 73%

Dew point: 29 °F

Location of SheboyganLocation

Historic Weather in Sheboygan — Graph

°F

Sheboygan Temperature Yesterday

Maximum temperature yesterday: 31 °F (at 1:53 PM)
Minimum temperature yesterday: 27 °F (at 12:53 AM)
Average temperature yesterday: 29 °F

High & Low Weather Summary for the Past Weeks

 TemperatureHumidityPressure
High55 °F (Jan 25, 9:53 AM)100% (Feb 2, 5:53 PM)30.38 "Hg (Feb 2, 5:53 PM)
Low6 °F (Jan 29, 6:53 AM)32% (Jan 23, 7:53 PM)29.45 "Hg (Feb 3, 3:53 AM)
Average30 °F74%29.89 "Hg
* Reported Jan 23 4:53 PM — Feb 7 4:53 PM, Sheboygan, Weather by CustomWeather, © 2016

Note: Actual official high and low records may vary slightly from our data, if they occured in-between our weather recording intervals... More about our weather records

Advertising

Sheboygan Weather History for the Previous 24 Hours

 ConditionsComfort  
Time TempWeatherWind HumidityBarometerVisibility
4:53 PM
Sun, Feb 7
39 °FOvercast.10 mph67%29.66 "Hg10 mi
3:53 PM40 °FPassing clouds.16 mph68%29.66 "Hg10 mi
2:53 PM40 °FBroken clouds.13 mph68%29.64 "Hg10 mi
1:53 PM41 °FSunny.15 mph65%29.63 "Hg10 mi
12:53 PM40 °FSunny.12 mph70%29.63 "Hg10 mi
11:53 AM39 °FSunny.12 mph70%29.65 "Hg10 mi
10:53 AM39 °FSunny.16 mph67%29.67 "Hg10 mi
9:53 AM38 °FSunny.14 mph70%29.69 "Hg10 mi
8:53 AM37 °FPartly sunny.14 mph73%29.71 "Hg10 mi
7:53 AM37 °FMostly cloudy.12 mph73%29.72 "Hg10 mi
6:53 AM38 °FOvercast.14 mph70%29.75 "Hg10 mi
5:53 AM36 °FOvercast.10 mph75%29.76 "Hg10 mi
4:53 AM34 °FOvercast.10 mph82%29.78 "Hg10 mi
3:53 AM33 °FMostly cloudy.12 mph82%29.83 "Hg10 mi
2:53 AM34 °FMostly cloudy.12 mph82%29.87 "Hg10 mi
1:53 AM33 °FOvercast.7 mph82%29.92 "Hg9 mi
12:53 AM32 °FMostly cloudy.9 mph82%29.96 "Hg9 mi
11:53 PM
Sat, Feb 6
30 °FOvercast.7 mph85%29.99 "Hg9 mi
10:53 PM30 °FPassing clouds.9 mph82%30.01 "Hg9 mi
9:53 PM30 °FPassing clouds.7 mph82%30.02 "Hg9 mi
8:53 PM29 °FPassing clouds.7 mph82%30.04 "Hg10 mi
7:53 PM29 °FOvercast.12 mph82%30.08 "Hg10 mi
6:53 PM29 °FChilly.12 mph82%30.09 "Hg10 mi
Weather by CustomWeather, © 2016

See weather overviewHow to use our weather pages